Location: ??????????
(48.5701°N, 37.7703°E)
Time: 22:31:05
(UTC+00:00)

SL-19 R/B - Pass Details

Date: 14 July 2020
Orbit: 358 x 810 km, 99.4° (Epoch: 10 August)

Event Time Altitude Azimuth Distance (km) Brightness Sun altitude
Rises 00:56:37 0° 18° (NNE) 2,217 8.7 -6.6°
Reaches altitude 10° 00:58:30 10° 21° (NNE) 1,383 7.6 -6.4°
Maximum altitude 01:01:23 66° 105° (ESE) 430 3.9 -6.0°
Drops below altitude 10° 01:04:30 10° 189° (S) 1,490 6.1 -5.7°
Enters shadow 01:06:07 - 191° (SSW) 2,201 6.9 -5.5°
